ImprimablePdf
Antwerp, 25/04/2010, BEL - DVV Antwerp Marathon & 10 Miles
Liste des rapports > Marathon - Classement + Video
Recherche: Page: [1]
168 Entrées
 
Les réclamations ne sont plus acceptées, les résultats sont considérés comme définitifs.
RangNrNomAgeIOCTempsTkmMoy.ScrLocalité
1.379HENDRICKX JAN51BEL2:42:283:52 15.5816HOOGSTRATENTéléchargez votre diplome!
2.378VANDERLINDEN MARC52BEL2:46:523:58 15.1718BRUXELLESTéléchargez votre diplome!
3.11TAELMAN LUCIEN53BEL2:48:114:00 15.0522WAREGEMTéléchargez votre diplome!
4.501CHAUHAN HARBANS50BEL2:54:334:09 14.5037HEVERLEETéléchargez votre diplome!
5.420VER ELST JAN52BEL2:57:254:13 14.2752HERSELTTéléchargez votre diplome!
6.578GEERTS LUC54BEL2:57:484:13 14.2463BEVEREN-WAASTéléchargez votre diplome!
7.558VAN SPEYBROECK MAURICE53BEL2:59:314:16 14.1070ERTVELDETéléchargez votre diplome!
8.2265VANHEE MARNIX52BEL3:00:194:17 14.0476TEMSETéléchargez votre diplome!
9.1028ROGIER JOSSE51BEL3:04:014:22 13.7692ROOSDAALTéléchargez votre diplome!
10.551WILLEM CORNELIS54BEL3:06:144:25 13.60105TERNATTéléchargez votre diplome!
11.446DEPESTEL POL50BEL3:06:574:26 13.54110HERENTHOUTTéléchargez votre diplome!
12.565BOUSSAERT DENIS52FRA3:09:424:30 13.35127ONNAINGTéléchargez votre diplome!
13.1511PACKOLET WALTER54BEL3:12:594:35 13.12149ANTWERPEN 2Téléchargez votre diplome!
14.614BEYNS ROBERT50BEL3:13:514:36 13.06161HAMTéléchargez votre diplome!
15.2094FLOREZ DROOP Manuel51BEL3:14:004:36 13.05164Téléchargez votre diplome!
16.771DIERICK DIRK50BEL3:14:014:36 13.05165POELKAPELLETéléchargez votre diplome!
17.1026DE BACKER WILLY52BEL3:14:294:37 13.02170BERLARETéléchargez votre diplome!
18.2329CLAUS JEAN-PIERRE51BEL3:15:004:38 12.98176GENTTéléchargez votre diplome!
19.1418THOELEN JOS51BEL3:15:054:38 12.98181KURINGENTéléchargez votre diplome!
20.1142VAN FRAEYENHOVEN BENNY51BEL3:15:354:39 12.94188HOVETéléchargez votre diplome!
21.654MATTHYS DIRK52BEL3:17:164:41 12.83204HERENTALSTéléchargez votre diplome!
22.441MEERT MARCEL52BEL3:17:214:41 12.83206SINT-KATHERINA-LOMBEEKTéléchargez votre diplome!
23.727GERARD FILIP52BEL3:22:094:48 12.52242BOOMTéléchargez votre diplome!
24.1499BEVERS MARC50BEL3:22:334:49 12.50250WUUSTWEZELTéléchargez votre diplome!
25.688GERLO LUC54BEL3:22:594:49 12.47258ELVERSELETéléchargez votre diplome!
26.184GARDIANOT OLIVIER51FRA3:23:104:49 12.46261SANTENYTéléchargez votre diplome!
27.862WUYTS GUIDO51BEL3:24:224:51 12.39277MALLETéléchargez votre diplome!
28.1030MEERSSCHAUT FRANKY50BEL3:25:354:53 12.31288HOBOKEN (ANTWERPEN)Téléchargez votre diplome!
29.1432LEMPERS JOS53NLD3:26:204:54 12.27300LANDGRAAFTéléchargez votre diplome!
30.1536WAUTERS GUIDO50BEL3:26:224:54 12.27301AARTSELAARTéléchargez votre diplome!
31.722VAN GOETHEM JEAN-MARC52BEL3:26:254:54 12.27304BRUXELLES 5Téléchargez votre diplome!
32.1152MARDAGA JOHAN50BEL3:27:164:55 12.22316BILZENTéléchargez votre diplome!
33.964VAN MOERBEKE PAUL52BEL3:27:414:56 12.19321ESSENTéléchargez votre diplome!
34.1500BILLET ANDRE50BEL3:29:124:58 12.10349WUUSTWEZELTéléchargez votre diplome!
35.1527DIERCKX ROBERT53BEL3:29:154:58 12.10351LINTTéléchargez votre diplome!
36.1430HAAN JOHN52NLD3:29:484:59 12.07358LANDGRAAFTéléchargez votre diplome!
37.2418LAUWERS STEFAAN51BEL3:29:504:59 12.07359GENTTéléchargez votre diplome!
38.703SCHNIERMANNI CONSTANT A.M.W.51POL3:29:574:59 12.06363SZCZECINTéléchargez votre diplome!
39.1174HATTAS WERNER50BEL3:30:435:00 12.02381WOMMELGEMTéléchargez votre diplome!
40.2301PEETERS KAREL54BEL3:30:485:00 12.01385TEMSETéléchargez votre diplome!
41.2444THOLLEBEEK Luc50BEL3:31:065:01 11.99389GROBBENDONKTéléchargez votre diplome!
42.229BENOEY RUDI50BEL3:33:275:04 11.86408ANTWERPENTéléchargez votre diplome!
43.452SCHOLZ KARL54BEL3:33:375:04 11.85411ALKENTéléchargez votre diplome!
44.2326RAINERI RENATO50BEL3:34:075:05 11.82421GENKTéléchargez votre diplome!
45.1029VANDER VEKEN PETER51BEL3:35:275:07 11.75437KALMTHOUTTéléchargez votre diplome!
46.915VAN BRAGT PETER51BEL3:35:315:07 11.75439BERCHEM (ANTWERPEN)Téléchargez votre diplome!
47.999BOURCY ERIC50BEL3:36:035:08 11.72448ROCHEFORTTéléchargez votre diplome!
48.1560VERBEKE Edmond53BEL3:36:445:09 11.68455Téléchargez votre diplome!
49.1266KUSTERMANS ANTOON52BEL3:37:335:10 11.64471KALMTHOUTTéléchargez votre diplome!
50.2049BOSMANS Erik50BEL3:38:345:11 11.58490Téléchargez votre diplome!
51.871POPPE PATRICK52BEL3:38:485:12 11.57495BORSBEEKTéléchargez votre diplome!
52.2332VANDERBEKEN DIRK52BEL3:40:325:14 11.48524OOSTAKKERTéléchargez votre diplome!
53.2278DE BLOCK BENNY52BEL3:40:385:14 11.47525BEVEREN-WAASTéléchargez votre diplome!
54.1269FLIES DIRK51BEL3:41:015:15 11.46527ESSENTéléchargez votre diplome!
55.2473VAN HEMELDONCK Serge54BEL3:41:125:15 11.45531BERCHEMTéléchargez votre diplome!
56.2098YUKLER Yusuf53BEL3:42:255:17 11.38549Téléchargez votre diplome!
57.1230BERT JOOST54BEL3:43:025:18 11.35561GENTTéléchargez votre diplome!
58.921ADRIAENSENS DIRK54BEL3:43:035:18 11.35562SINT-NIKLAASTéléchargez votre diplome!
59.750VAN DE POL GUST50BEL3:43:515:19 11.31582OUD-TURNHOUTTéléchargez votre diplome!
60.1169STORME DIRK52BEL3:44:135:19 11.29589ZWALMTéléchargez votre diplome!
61.1122POPPE LUCIEN54BEL3:44:395:20 11.27599KAPELLEN (ANTW.)Téléchargez votre diplome!
62.1195DELBART MICHEL51BEL3:44:435:20 11.27600ALKENTéléchargez votre diplome!
63.1521HELLEMANS BERT51BEL3:45:135:21 11.24611BERCHEM (ANTWERPEN)Téléchargez votre diplome!
64.1245DEWILDE EDDY53BEL3:45:495:22 11.21622IEPERTéléchargez votre diplome!
65.1094LIBERT ERIC52FRA3:46:015:22 11.20623WIMEREUXTéléchargez votre diplome!
66.398DUFOUR RENE51BEL3:46:135:22 11.19626LIEGE 1Téléchargez votre diplome!
67.961PRADES PHILIPPE52FRA3:47:305:24 11.13653DOUAITéléchargez votre diplome!
68.2355APPELS ERWIN51BEL3:48:295:25 11.08671BOECHOUTTéléchargez votre diplome!
69.2378VAN DE WALLE MANFRED50BEL3:48:495:26 11.06672SLEIDINGETéléchargez votre diplome!
70.645BORGHGRAEF ERIC53BEL3:48:525:26 11.06673HAASDONKTéléchargez votre diplome!
71.631VERGAUWEN PAUL52BEL3:50:195:28 10.99688BRASSCHAATTéléchargez votre diplome!
72.1203GIEBENS WILLEM50BEL3:50:445:29 10.97696MERELBEKETéléchargez votre diplome!
73.1502ROMBOUTS JAN53BEL3:52:245:31 10.89726ANTWERPEN 1Téléchargez votre diplome!
74.1219SOERS JOHAN53BEL3:53:065:32 10.86738MORTSELTéléchargez votre diplome!
75.1550CALLENS Rik53BEL3:53:395:33 10.84748Téléchargez votre diplome!
76.1216DE BROUWERE JOHAN51BEL3:53:405:33 10.84749ROESELARETéléchargez votre diplome!
77.2261ROMBAUT JO52BEL3:54:015:33 10.82754BEVEREN-WAASTéléchargez votre diplome!
78.2051DESMET Dominiek51BEL3:55:055:35 10.77772Téléchargez votre diplome!
79.1048KOEDAM ALBERT51NLD3:55:525:36 10.73787VEENENDAALTéléchargez votre diplome!
80.2359DE WIT EDDY54BEL3:55:565:36 10.73788KONINGSHOOIKTTéléchargez votre diplome!
81.1005WIERING PAUL54NLD3:55:565:36 10.73789DIEMENTéléchargez votre diplome!
82.1327BARTHOLOMEUS LUC50BEL3:56:215:37 10.71802WESTERLOTéléchargez votre diplome!
83.616WITTENBERG GEERT54BEL3:56:575:37 10.68817GERAARDSBERGENTéléchargez votre diplome!
84.302PEETERS FRENK51NLD3:57:005:38 10.68819MAASTRICHTTéléchargez votre diplome!
85.1003VERMEIREN DANNY52BEL3:57:095:38 10.68821TURNHOUTTéléchargez votre diplome!
86.1809ANDRIES Koen50BEL3:57:545:39 10.64843Téléchargez votre diplome!
87.333STEUNENBERG WIM50NLD3:57:555:39 10.64844GRONIGNENTéléchargez votre diplome!
88.468KLEINMANN KLAUS50GER3:57:585:39 10.64848KALKARTéléchargez votre diplome!
89.539DE WITTE PHILIPPE52BEL3:58:405:40 10.61872KESSEL-LOTéléchargez votre diplome!
90.1487VAN DAMME WIM51BEL3:59:085:41 10.59879ANTWERPEN 1Téléchargez votre diplome!
91.444AERTS DIRK54BEL4:00:305:42 10.53900ANTWERPEN 1Téléchargez votre diplome!
92.528ANCIAUX GUIDO53BEL4:00:435:43 10.52901DEURNETéléchargez votre diplome!
93.623VAN OPSTAL PAUL50BEL4:01:205:44 10.49906BRECHTTéléchargez votre diplome!
94.1256MINNAARD HANS50NLD4:02:185:45 10.45917REIMERSWAALTéléchargez votre diplome!
95.232PETERS JOSEF52GER4:04:085:48 10.37931KEVELAERTéléchargez votre diplome!
96.2267IVENS LUC52BEL4:04:125:48 10.37932TEMSETéléchargez votre diplome!
97.1341KERCKHOFS LEO53BEL4:05:045:49 10.33945DEURNE (ANTWERPEN)Téléchargez votre diplome!
98.1453DEKKER JOHAN52NLD4:05:115:49 10.33948MIDDELBURGTéléchargez votre diplome!
99.1339JANSSENS PAUL50BEL4:05:375:50 10.31953WIJNEGEMTéléchargez votre diplome!
100.424DE JONG JAN50NLD4:05:465:50 10.30955VOORBURGTéléchargez votre diplome!
101.2330VAN PELT JAN52BEL4:05:555:50 10.30957TIELENTéléchargez votre diplome!
102.1434GOOSSENS ERIK50BEL4:06:165:51 10.28962TIENENTéléchargez votre diplome!
103.1369JANSEN BRUNO53BEL4:06:195:51 10.28963TIENENTéléchargez votre diplome!
104.185VERDONCK MARC52BEL4:07:095:52 10.24972KRUIBEKETéléchargez votre diplome!
105.2071NIBBERING Jan Willem54BEL4:07:435:53 10.22976Téléchargez votre diplome!
106.1563PINSON Jan50BEL4:08:045:53 10.21978Téléchargez votre diplome!
107.1205WALRAEVENS ALAIN54BEL4:08:235:54 10.19982TEMSETéléchargez votre diplome!
108.2379GOOSSENS PHILIP50BEL4:08:465:54 10.18990STEKENETéléchargez votre diplome!
109.2285BUYTAERT GEERT53BEL4:08:525:54 10.17992MELSELETéléchargez votre diplome!
110.2251VAN OSSELAER WERNER50BEL4:11:085:58 10.081024BERCHEM (ANTWERPEN)Téléchargez votre diplome!
111.695NOYEZ JAN54BEL4:11:105:58 10.081026HERTSBERGETéléchargez votre diplome!
112.1130DEKEYSER JOHAN52BEL4:11:295:58 10.071033LINDENTéléchargez votre diplome!
113.244VERTONGEN DIDIER51BEL4:11:505:59 10.051041WOLUWE-SAINT-LAMBERTTéléchargez votre diplome!
114.1298SWINNEN ERIC54BEL4:12:105:59 10.041045TILDONKTéléchargez votre diplome!
115.2374VAN ASCH WERNER54BEL4:13:406:01 9.981066LIERTéléchargez votre diplome!
116.1425COX HERMAN50BEL4:13:566:02 9.971072WESTERLOTéléchargez votre diplome!
117.736POTTER RONNY54BEL4:14:276:02 9.951081SCHOTENTéléchargez votre diplome!
118.1513VAN BOXEL JAN54BEL4:15:056:03 9.931089MEERTéléchargez votre diplome!
119.513ROGIERS WALTER54BEL4:16:006:05 9.891102WAASMUNSTERTéléchargez votre diplome!
120.1134OSSEWEIJER CORNELIS52NLD4:16:276:05 9.871108BRIELLETéléchargez votre diplome!
121.2269DE SCHRYVER PAUL54BEL4:18:146:08 9.801138SINT-NIKLAASTéléchargez votre diplome!
122.1315DIARTE-CASANOVA PASCUAL53BEL4:18:256:08 9.801140DEURNETéléchargez votre diplome!
123.937HAUTEKIET BRUNO52BEL4:19:356:10 9.751156BORSBEEKTéléchargez votre diplome!
124.711CATSOULIS ANTONIS50BEL4:21:476:13 9.671173EDEGEMTéléchargez votre diplome!
125.1812DELGYER Marc50BEL4:22:026:13 9.661176Téléchargez votre diplome!
126.2310DE WILDE FRANK51BEL4:23:056:15 9.621189SINT-NIKLAASTéléchargez votre diplome!
127.1179RAES LAURENT50FRA4:23:096:15 9.621191RONCQTéléchargez votre diplome!
128.397DACOS PATRICK54BEL4:26:306:19 9.501207LIEGE 1Téléchargez votre diplome!
129.393VANNESTE YVES53BEL4:28:316:22 9.431220WERVIKTéléchargez votre diplome!
130.1133GORIS LEO53BEL4:28:446:23 9.421221WIJNEGEMTéléchargez votre diplome!
131.1250CALASSI ANTONIO50BEL4:28:536:23 9.421223QUAREGNONTéléchargez votre diplome!
132.1473VAN DEN HAUTEN GEORGES52BEL4:29:226:24 9.401228KAMPENHOUTTéléchargez votre diplome!
133.1493RYCKMANS LIBERT54BEL4:29:356:24 9.391230ZEMSTTéléchargez votre diplome!
134.922AERTS EDDY50BEL4:29:476:24 9.381232DEINZETéléchargez votre diplome!
135.2350BRACKE JAN51BEL4:30:146:25 9.371235BOUCHOUTTéléchargez votre diplome!
136.1118LIBERT PATRICK52BEL4:31:426:27 9.321242SCHOTENTéléchargez votre diplome!
137.2087POT Pierre53BEL4:32:526:28 9.281255Téléchargez votre diplome!
138.304VINCKEN GERARD53NLD4:32:546:29 9.281257EIJSDENTéléchargez votre diplome!
139.591VAN BOGAERT MARK54BEL4:34:266:31 9.231272LOKERENTéléchargez votre diplome!
140.2016ROOMAN Marc51BEL4:36:546:34 9.141291Téléchargez votre diplome!
141.467SPINOSO DOMINIQUE54BEL4:38:136:36 9.101295HYONTéléchargez votre diplome!
142.160CREEL RONNY51BEL4:38:296:36 9.091296EEKLOTéléchargez votre diplome!
143.906NICASY HANS54BEL4:38:436:37 9.081297DEURNE (ANTWERPEN)Téléchargez votre diplome!
144.900VERMEIREN WILLY54BEL4:40:446:40 9.021309LILLETéléchargez votre diplome!
145.340CLOES GUY52BEL4:41:326:41 8.991318UCCLETéléchargez votre diplome!
146.1168VAN DER END GERT JAN50NLD4:42:316:42 8.961321VLAARDINGENTéléchargez votre diplome!
147.298JANSEN RONALD50NLD4:43:046:43 8.941323ALMERETéléchargez votre diplome!
148.2327VERHAEGEN JAN50BEL4:43:056:43 8.941324ZOERSELTéléchargez votre diplome!
149.414VOLLEBREGT ETIENNE54NLD4:44:206:45 8.901329VOORBURGTéléchargez votre diplome!
150.1463MASTROGIACOMI ANGELO50LUX4:47:056:49 8.821345GONDERANGETéléchargez votre diplome!
151.672GOEDSEELS DIRK51BEL4:48:216:51 8.781347DUFFELTéléchargez votre diplome!
152.178OP DE BEECK JAN54BEL4:51:446:55 8.681363BRASSCHAATTéléchargez votre diplome!
153.2477LEENAARDS JORG53BEL4:53:486:58 8.621371WIJGMAAL (BT.)Téléchargez votre diplome!
154.471RIVERS JACK54BEL4:54:447:00 8.591375ZONNEBEKETéléchargez votre diplome!
155.1226ENGELEN JOHAN54BEL4:55:247:01 8.571379DIESTTéléchargez votre diplome!
156.207BROOMFIELD KENNETH50GBR5:00:327:08 8.421397SOUTHWATER, WEST SUSSEXTéléchargez votre diplome!
157.1082VOET KOEN50BEL5:01:287:09 8.401400KASTERLEETéléchargez votre diplome!
158.893MOELCHAND MOEL53NLD5:34:107:56 7.581447ROTTERDAMTéléchargez votre diplome!
DNF1236BEAUSAERT GUIDO53BELSINT-ANDRIES
DNF1414HEREMANS ERIC52BELHALLE
DNF779MAERTENS PAUL52BELANTWERPEN
DNF1428MILCAMPS THIERRY52BELLINKEBEEK
DNF1448MOENS DANNY50BELSCHOTEN
DNF158PEIRELINCK JAN54BELMOLENSTEDE
DNF577TEUGELS WERNER50BELWILRIJK (ANTWERPEN)
DNF1436VANDERBORCHT WILLY53BELBORSBEEK (ANTW.)
DNF2419VANHAVERBEKE KRISTIEN52BELGITS
DNF2362WIJNANTS EDDY52BELBOUWEL
DNF: abandon; DSQ: disqualifié; Vitesse en km/h
ChronoRace - Electronic Timing - www.chronorace.be